Wind_Speed
17 17 18 18 18 18 18 18 19 18 17 17 18 18 18 19 19 19 19 19 19 19 20 19 19 19 19 19 19 19 19 20 21 21 22 22 22 23
18 19 19 20 20 19 19 19 19 19 19 19 19 20 20 21 21 21 21 21 20 20 20 19 19 19 19 19 20 20 20 20 20 21 22 22 22 23
19 20 20 20 20 20 20 20 20 20 21 21 21 21 22 22 23 23 22 22 21 20 21 21 20 20 19 19 19 20 21 20 20 21 21 22 22 22
19 20 21 21 20 20 20 20 20 21 22 22 23 23 23 23 23 24 23 23 22 22 21 21 21 21 20 20 19 19 20 20 20 20 20 21 21 22
21 21 21 21 21 21 21 21 21 22 22 23 24 24 24 24 23 24 23 23 23 23 23 22 22 22 22 21 20 19 19 19 19 19 20 20 20 21
22 22 23 23 22 22 22 23 23 23 24 24 24 23 23 23 24 24 23 24 24 23 23 22 22 22 22 21 20 20 20 20 19 19 20 20 20 21
24 24 24 24 23 24 24 24 24 24 24 24 23 23 23 23 23 23 23 23 23 23 23 22 21 21 21 21 21 20 20 20 20 20 19 20 20 21
26 26 26 26 25 25 25 25 25 25 24 24 23 23 22 22 22 22 22 22 22 22 22 22 21 20 21 21 20 20 20 20 20 20 20 21 21 21
27 27 27 27 26 26 26 26 26 25 24 24 24 24 23 23 23 22 22 23 22 23 23 21 21 21 21 21 21 21 21 21 21 20 21 21 21 22
28 28 29 28 28 27 27 27 26 25 24 24 24 24 24 23 23 22 22 23 24 23 22 22 22 22 21 21 21 21 21 21 21 21 21 21 22 22
28 28 28 28 28 27 27 27 26 25 25 25 24 24 24 24 23 23 24 24 24 23 24 23 22 22 22 22 22 21 21 21 21 21 21 22 22 23
28 27 27 27 27 27 27 26 26 25 25 25 26 26 25 25 24 24 25 24 24 24 24 24 23 23 22 22 23 23 23 22 22 22 22 22 23 23
27 27 27 26 27 27 27 27 26 26 25 25 25 25 25 25 25 26 25 25 25 24 24 24 24 24 23 23 23 23 23 23 23 22 22 22 22 23
27 27 27 27 27 28 27 27 26 25 25 25 25 25 25 26 26 25 25 25 25 25 25 25 25 24 24 24 24 24 24 24 24 23 23 23 23 23
28 27 27 27 27 27 26 26 26 26 26 26 26 26 27 27 27 26 26 26 26 26 25 25 25 26 25 25 24 24 25 25 25 24 24 24 24 24
28 28 28 28 28 28 28 28 28 28 28 28 28 27 27 27 28 28 27 27 27 27 27 27 27 27 27 26 26 26 25 25 25 25 25 25 25 24
29 29 29 29 29 29 28 29 29 29 29 29 29 28 28 28 28 28 28 28 28 27 27 28 28 27 27 27 26 26 26 26 26 26 26 26 27 26
29 29 29 29 29 29 29 29 29 29 30 31 30 30 29 29 29 29 29 29 28 28 28 28 28 27 27 27 27 26 26 26 26 26 26 26 26 27
29 29 29 29 29 29 29 30 30 30 30 30 29 29 29 29 30 29 29 28 28 28 28 27 27 27 27 27 27 27 27 27 26 27 27 27 27 27
29 29 29 29 29 29 30 30 30 30 30 29 29 29 29 29 29 29 29 28 28 27 27 27 27 26 26 26 27 28 28 28 28 28 28 28 27 27
28 28 27 27 28 29 29 30 30 30 29 29 28 28 28 28 28 28 28 28 27 27 27 27 27 26 26 27 27 27 27 28 28 28 27 27 26 26
27 27 26 26 27 28 29 29 29 29 28 28 27 27 27 28 28 28 28 28 27 26 26 25 25 26 25 25 26 26 26 26 27 27 27 26 26 26
26 26 27 27 27 27 28 28 28 28 28 27 27 26 26 26 27 27 27 26 26 25 25 25 25 25 26 25 25 25 25 25 26 27 27 27 27 28
Wind_Direction
293 293 293 294 294 292 289 290 290 286 284 285 287 287 286 286 286 288 286 283 282 284 284 282 283 284 281 279 279 277 275 273 270 266 262 258 258 256
292 292 292 293 294 292 288 287 288 285 284 284 285 286 287 288 288 288 288 285 282 283 283 281 281 283 284 282 281 279 276 274 271 267 264 260 259 257
293 293 293 292 294 294 291 288 287 284 283 283 283 284 286 287 287 287 288 286 283 281 280 279 280 281 282 282 281 280 278 275 273 269 264 261 260 256
292 294 294 293 293 293 293 291 287 287 284 283 283 284 285 286 285 285 286 287 282 280 279 278 280 280 280 280 280 281 277 275 273 269 264 262 260 255
290 291 293 292 292 292 291 291 291 290 287 285 285 285 285 285 285 285 285 285 284 281 280 278 279 279 280 279 279 279 278 275 272 269 266 264 262 256
290 290 291 292 292 292 290 290 290 290 290 288 285 285 285 284 284 284 284 284 284 281 280 278 278 278 279 277 278 277 276 275 271 269 267 265 263 260
288 289 291 290 289 290 291 290 290 290 290 289 286 284 284 284 284 283 282 283 283 283 282 279 279 278 278 276 277 278 276 274 271 268 267 266 265 263
287 288 289 288 287 288 289 289 289 289 288 288 287 287 285 284 284 282 281 281 282 282 282 281 281 280 278 276 275 275 276 274 272 268 267 268 266 264
287 287 287 285 285 286 287 287 288 289 287 287 287 285 285 285 284 284 282 282 282 283 282 279 278 279 279 277 275 273 273 273 272 270 269 268 267 266
288 287 286 285 285 285 286 287 288 288 286 286 286 285 284 284 284 285 283 282 282 282 282 280 278 277 278 278 276 274 273 273 273 272 270 269 268 267
287 287 285 285 285 285 286 287 286 286 286 284 283 284 284 283 283 283 283 283 281 280 280 280 278 275 275 276 275 274 273 273 273 273 273 271 269 268
286 285 285 284 283 283 285 286 286 286 285 284 284 284 283 282 281 282 282 281 280 279 278 277 277 275 274 275 274 273 272 272 272 273 273 273 271 269
285 284 284 285 284 283 284 285 286 284 283 284 285 284 283 283 282 280 280 280 278 278 278 276 276 276 274 272 271 271 271 271 272 272 273 274 273 272
284 284 283 282 283 283 283 283 283 284 284 285 285 285 285 285 282 280 279 278 277 277 276 276 276 275 274 272 271 270 270 270 270 272 272 273 274 273
283 281 280 281 282 282 282 283 283 284 284 284 285 286 285 284 282 280 278 277 276 275 275 275 274 273 273 272 271 269 270 270 270 270 271 272 273 273
280 281 281 281 282 282 281 281 282 283 283 284 284 285 285 283 282 280 279 278 277 275 275 276 274 272 271 271 270 269 269 269 269 270 270 271 271 272
279 280 281 281 282 283 283 282 282 282 282 284 283 284 284 282 280 280 279 278 277 277 276 275 274 272 271 270 269 268 267 268 269 269 268 270 271 271
280 281 281 282 284 284 284 283 283 282 283 283 282 282 282 280 279 279 279 278 276 275 276 275 274 273 272 269 268 267 266 268 269 269 268 269 269 270
281 281 282 283 284 285 285 285 284 284 283 283 282 282 282 280 278 277 278 277 276 275 275 275 274 274 273 270 268 266 266 267 268 268 269 269 270 270
283 284 284 284 284 284 284 285 285 286 285 284 283 282 281 280 279 277 276 276 276 275 274 274 273 273 273 271 269 268 267 267 268 269 270 270 271 270
285 286 286 285 285 284 284 284 284 285 284 283 282 282 281 280 278 277 276 276 276 275 275 275 274 273 272 272 271 270 269 269 270 270 271 271 270 270
286 287 288 288 287 286 285 284 284 282 281 281 281 281 280 280 279 277 276 275 274 275 275 275 273 272 271 273 272 272 270 269 269 270 271 272 273 273
287 287 289 290 288 287 286 285 283 281 281 282 282 281 280 280 279 277 277 276 275 274 274 273 273 272 273 274 273 273 272 270 270 270 271 273 275 276
Height
5862 5860 5859 5857 5855 5854 5852 5851 5849 5848 5846 5845 5844 5843 5842 5840 5839 5837 5836 5835 5834 5833 5831 5830 5829 5828 5827 5826 5825 5824 5823 5823 5822 5822 5823 5823 5823 5824
5857 5856 5854 5852 5851 5849 5847 5845 5844 5843 5841 5840 5839 5838 5837 5835 5833 5832 5831 5829 5828 5827 5826 5824 5824 5823 5821 5820 5819 5818 5818 5817 5816 5816 5816 5817 5818 5818
5852 5851 5849 5847 5845 5844 5842 5840 5838 5837 5836 5835 5833 5832 5831 5829 5828 5826 5825 5823 5822 5821 5820 5819 5818 5817 5816 5815 5813 5812 5811 5811 5810 5810 5810 5811 5812 5813
5847 5845 5844 5842 5840 5838 5837 5835 5833 5832 5830 5829 5827 5826 5825 5823 5821 5820 5818 5817 5816 5815 5814 5813 5812 5811 5810 5809 5808 5806 5805 5805 5804 5804 5804 5805 5805 5806
5841 5839 5838 5836 5834 5832 5831 5829 5828 5826 5824 5823 5821 5820 5818 5817 5815 5814 5812 5811 5809 5808 5808 5807 5806 5805 5804 5803 5802 5800 5800 5799 5799 5798 5798 5798 5799 5800
5835 5834 5832 5830 5828 5826 5825 5823 5821 5820 5818 5816 5814 5813 5811 5810 5809 5807 5806 5804 5803 5802 5801 5800 5799 5798 5797 5797 5796 5795 5794 5793 5793 5793 5793 5793 5793 5794
5829 5827 5825 5824 5822 5820 5818 5816 5815 5813 5811 5809 5807 5806 5805 5803 5802 5801 5800 5798 5796 5795 5794 5793 5792 5791 5791 5790 5789 5789 5788 5788 5787 5787 5787 5787 5787 5788
5822 5820 5818 5817 5815 5813 5811 5809 5808 5806 5804 5802 5801 5799 5798 5797 5796 5794 5793 5792 5791 5790 5788 5787 5786 5785 5784 5784 5783 5783 5782 5782 5782 5781 5781 5782 5782 5782
5815 5813 5811 5809 5808 5806 5804 5802 5800 5798 5797 5795 5794 5793 5791 5790 5789 5787 5786 5785 5784 5783 5781 5780 5779 5778 5778 5777 5777 5777 5777 5776 5776 5776 5776 5776 5776 5776
5807 5805 5803 5801 5800 5798 5797 5795 5793 5791 5790 5788 5787 5786 5784 5783 5782 5781 5779 5778 5777 5776 5775 5774 5773 5772 5771 5771 5770 5770 5770 5770 5770 5770 5769 5770 5770 5770
5799 5797 5795 5793 5792 5790 5789 5787 5785 5784 5782 5781 5779 5778 5776 5775 5774 5773 5772 5771 5770 5769 5768 5767 5766 5765 5764 5764 5764 5764 5764 5764 5764 5763 5763 5763 5763 5763
5791 5789 5787 5785 5784 5782 5781 5779 5778 5776 5774 5773 5771 5770 5769 5768 5766 5766 5765 5764 5763 5762 5761 5760 5759 5759 5758 5757 5757 5756 5757 5757 5757 5757 5756 5756 5756 5756
5782 5781 5779 5778 5776 5774 5773 5771 5770 5768 5766 5765 5763 5762 5761 5760 5759 5758 5757 5756 5755 5755 5754 5753 5752 5752 5751 5750 5750 5749 5749 5750 5749 5750 5750 5749 5749 5749
5775 5773 5772 5770 5768 5767 5765 5763 5762 5760 5759 5757 5756 5754 5753 5752 5751 5750 5749 5748 5748 5747 5746 5745 5745 5744 5744 5743 5743 5742 5742 5742 5742 5742 5742 5742 5742 5742
5766 5765 5763 5762 5760 5758 5757 5756 5754 5752 5751 5750 5748 5747 5745 5744 5742 5742 5741 5740 5740 5739 5739 5738 5737 5737 5736 5735 5735 5735 5734 5734 5734 5734 5735 5735 5735 5734
5758 5756 5755 5753 5752 5750 5749 5747 5746 5744 5743 5741 5740 5738 5737 5735 5734 5733 5733 5732 5731 5731 5730 5730 5729 5729 5728 5727 5727 5727 5727 5727 5727 5726 5726 5727 5726 5726
5749 5748 5746 5744 5743 5741 5740 5739 5737 5736 5734 5733 5731 5729 5728 5727 5726 5725 5724 5723 5722 5722 5722 5721 5720 5720 5719 5719 5719 5719 5719 5719 5718 5718 5718 5718 5718 5718
5740 5739 5737 5736 5734 5732 5731 5730 5728 5726 5725 5723 5721 5720 5719 5718 5717 5716 5715 5714 5713 5713 5712 5712 5711 5711 5711 5710 5711 5710 5710 5710 5710 5710 5709 5709 5710 5709
5731 5730 5728 5727 5725 5723 5722 5721 5719 5717 5715 5714 5712 5711 5710 5709 5708 5707 5706 5705 5705 5704 5703 5702 5702 5702 5702 5702 5702 5702 5702 5701 5701 5701 5701 5701 5701 5701
5722 5721 5719 5718 5716 5714 5713 5712 5710 5708 5706 5705 5704 5702 5701 5700 5699 5698 5697 5697 5696 5695 5695 5694 5694 5694 5693 5693 5693 5693 5693 5693 5693 5693 5692 5692 5691 5691
5714 5712 5710 5709 5707 5705 5704 5702 5700 5699 5697 5696 5695 5693 5692 5691 5690 5689 5689 5688 5687 5687 5686 5686 5685 5685 5685 5685 5684 5684 5684 5684 5684 5684 5683 5683 5682 5682
5705 5703 5702 5700 5698 5696 5694 5693 5691 5689 5688 5687 5686 5684 5683 5682 5682 5681 5680 5680 5679 5678 5678 5678 5677 5677 5677 5676 5676 5676 5676 5675 5675 5675 5674 5674 5673 5673
5697 5695 5693 5691 5689 5687 5685 5683 5682 5680 5679 5678 5677 5676 5675 5674 5673 5672 5671 5671 5670 5670 5670 5669 5669 5668 5668 5668 5668 5667 5667 5666 5666 5666 5666 5665 5665 5664